Kezdőlap
METAR-TAF:

METAR-TAF

Repülőterek :

Winona Municipal Airport (Max Conrad Field)

Winona, Minnesota, Amerikai Egyesült Államok

földrajzi szélesség: 44-05N, földrajzi hosszúság: 091-42W, magasság: 200 m

Jelenlegi meteorológiai megfigyelések

A jelentés 22 perccel ezelõtt készült, 15:55 UTC
Kelet-délkeleti szél 5 kt
Hőmérséklet 0°C
Páratartalom 80%
Légköri nyomás 1021 hPa
Látótávolság: 16.1 km
Derült ég

METAR: KONA 081555Z AUTO 12005KT 10SM CLR 00/M03 A3016 RMK AO2

Idő: 10:17 (16:17 UTC)


TAF: hiányzik

Meteorológiai megfigyelések és előrejelzések több, mint 4000 repülőtéren (METAR és TAF jelentéseket).

A térképen piros és sárga pontok jelzik az elérhető meteorológiai állomásokat.

Mozgassa az egeret a pont fölött, hogy megjelenjen az állomás neve.

Azután kattintson az időjárási megfigyelések és előrejelzések megtekintéséhez.

A térkép megváltoztatása: kattintson a fekete keresztel jelölt zöld gombra ráközelítéshez, a vonallal jelölt zöld gombra távolításhoz, vagy a zöld nyilakra a szomszédos térképek eléréséhez.


METAR-TAF: